Regional Weather Roundup
Issued by NWS

Home | Current Version | Previous Version | Text Only | Print | Product List | Glossary On
Versions: 1 2 3 4 5 6 7 8 9 10 11 12 13 14 15 16 17 18 19 20 21 22 23 24 25 26 27 28 29 30 31 32 33 34 35 36 37 38 39 40 41 42 43 44 45 46 47 48 49 50
000
ASUS44 KFWD 241703
RWRTX
NORTH TEXAS HOURLY WEATHER ROUNDUP
NATIONAL WEATHER SERVICE FORT WORTH TX
1100 AM CST SAT FEB 24 2018

NOTE: "FAIR" INDICATES FEW OR NO CLOUDS BELOW 12,000 FEET WITH NO
SIGNIFICANT WEATHER AND/OR OBSTRUCTIONS TO VISIBILITY.

TXZ118-119-241800-
DALLAS/FORT WORTH METROPLEX

CITY           SKY/WX    TMP DP  RH WIND       PRES   REMARKS
DFW AIRPORT    LGT RAIN  52  49  89 NW20G31   29.83R VSB 1
DALLAS LOVE    TSTM      60  59  96 NW18      29.83R VSB 3/4
FTW MEACHAM    CLOUDY    50  48  93 W15G25    29.86R THUNDER
DAL-EXECUTIVE  TSTM      68  66  93 S17G29    29.81R VSB 1
FTW-ALLIANCE   CLOUDY    46  45  96 NW12      29.87R THUNDER
FTW-NAS-JRB    CLOUDY    50  46  86 NW15      29.87R THUNDER
FTW-SPINKS     CLOUDY    54  52  94 SW13G24   29.88R FOG
ARLINGTON      LGT RAIN  61  61 100 W10G22    29.84R FOG
GRAND PRAIRIE  RAIN      63  63 100 SW14G21   29.85R
MESQUITE       RAIN      64  64 100 S20G25    29.81R
LANCASTER      CLOUDY    65  64  98 S13       29.83F
$$

TXZ091>094-102>105-117-120-121-131>134-241800-
NORTH CENTRAL TEXAS

CITY           SKY/WX    TMP DP  RH WIND       PRES   REMARKS
SHRMAN/DENISON TSTM      46  45  99 W12       29.86R WCI  40
GAINESVILLE    CLOUDY    44  42  95 N9        29.89S FOG     WCI  38
BOWIE          CLOUDY    42  42 100 W12       29.90R WCI  35
BRIDGEPORT     CLOUDY    43  43 100 W6        29.90F WCI  39
DECATUR        CLOUDY    44  44  99 W10       29.87S WCI  38
DENTON         CLOUDY    45  45 100 NW16      29.87R WCI  38
MCKINNEY       TSTM      62  62 100 W28G36    29.82S VSB 1/2
BONHAM         LGT RAIN  60  60  99 S12       29.75F
ROCKWALL       CLOUDY    66  66 100 SW21G35   29.80F
TERRELL        CLOUDY    68  65  90 S14G23    29.82R
CLEBURNE       LGT RAIN  50  50 100 NW16      29.88R
GRANBURY       CLOUDY    50  49  95 W7        29.90R
$$

TXZ083>090-098>101-113>116-127>130-139>142-154-155-241800-
WESTERN NORTH TEXAS

CITY           SKY/WX    TMP DP  RH WIND       PRES   REMARKS
WICHITA FALLS  CLOUDY    44  42  93 W9        29.92R WCI  39
WF-KICKAPOO    CLOUDY    42  41  96 N9        29.94R WCI  37
VERNON         CLOUDY    44  40  87 W5        29.93R
ABILENE        FAIR      53  50  89 N12       29.92R
BRECKENRIDGE   CLOUDY    47  46  96 NW10      29.94R
CISCO          CLOUDY    50  50 100 W7        29.90R
EASTLAND       CLOUDY    48  47  97 NW8       29.91R
RANGER         CLOUDY    50  50 100 NW8       29.90R
MINERAL WELLS  CLOUDY    45  42  89 W10       29.89R WCI  40
STEPHENVILLE   CLOUDY    54  53  95 W6        29.97R
COMANCHE       CLOUDY    57  57 100 NW6       29.89S
BROWNWOOD      PTSUNNY   61  61 100 W6        29.90S FOG
COLEMAN        PTSUNNY   66  61  83 W18       29.91R
$$

TXZ143>147-156>162-174-175-241800-
CENTRAL TEXAS

CITY           SKY/WX    TMP DP  RH WIND       PRES   REMARKS
WACO           CLOUDY    69  66  90 S16       29.86S
WACO-TSTC      LGT RAIN  68  68 100 SE3       29.87R
WACO-MCGREGOR  CLOUDY    68  66  93 S14       29.87R
HILLSBORO      CLOUDY    66  66 100 S17       29.84S FOG
CORSICANA      CLOUDY    70  67  90 S16       29.87S
MEXIA          CLOUDY    70  67  89 S21G30    29.87R
HEARNE         CLOUDY    72  69  89 S16G23    29.90F
CAMERON        CLOUDY    73  67  82 S14G23    29.89R
TEMPLE         CLOUDY    71  68  90 S18G29    29.88R
KILLEEN        LGT RAIN  68  66  93 S15       29.87R
KILLEEN-SKYLRK CLOUDY    70  66  87 SW10      29.89R
GATESVILLE     PTSUNNY   70  68  94 SW7G15    29.89R
HAMILTON       CLOUDY    69  69 100 SW14      29.89R
LAMPASAS       FAIR      70  66  86 SW15      29.87S
$$

TXZ095>097-106>112-122>126-135>138-148>153-164>167-241800-
EAST TEXAS

CITY           SKY/WX    TMP DP  RH WIND       PRES   REMARKS
PARIS          CLOUDY    68  66  93 S25G31    29.77S
SULPHUR SPRNGS CLOUDY    69  69 100 S23G30    29.80R
MOUNT PLEASANT FAIR      71  68  91 S15G24    29.85F
GILMER         LGT RAIN  70  66  87 S15G21    29.87S
MINEOLA        LGT RAIN  70  66  88 S10G22    29.85F
TYLER          CLOUDY    70  67  90 S14       29.88R THUNDER
LONGVIEW       CLOUDY    73  68  84 S16G26    29.89R
MARSHALL       CLOUDY    73  66  80 S13G22    29.92R
ATHENS         DRIZZLE   66  66 100 S15       29.84F
PALESTINE      RAIN      71  67  89 S15G22    29.91R
JACKSONVILLE   LGT RAIN  69  67  93 S14G23    29.94R
HENDERSON      LGT RAIN  72  66  83 S8        29.92S
CENTER         CLOUDY    73  65  75 S17G28    29.93F
NACOGDOCHES    PTSUNNY   73  67  81 S20G25    29.91F
LUFKIN         LGT RAIN  73  67  81 S22G28    29.91F
$$

SUPPLEMENTAL OBSERVATIONS (NWS FORT WORTH AREA)

CITY           SKY/WX    TMP DP  RH WIND       PRES   REMARKS
$$

SUPPLEMENTAL OBSERVATIONS (NWS NORMAN AREA)

CITY           SKY/WX    TMP DP  RH WIND       PRES   REMARKS
GOODLETT         N/A     44  42  94 SW6       29.91S
ODELL            N/A     43  42  98 W7        29.93R WCI  38
CROWELL          N/A     46  43  90 S5        29.93R
KNOX CITY        N/A     47  43  85 W7        29.94F
SEYMOUR          N/A     44  42  92 W3        29.93F
$$

SUPPLEMENTAL OBSERVATIONS (NWS SAN ANGELO AREA)

CITY           SKY/WX    TMP DP  RH WIND       PRES   REMARKS
WEINERT          N/A     45  42  91 W7        29.94F
HASKELL          N/A     45  44  98 W12       29.94S WCI  39
THROCKMORTON     N/A     44  43  93 NW10      29.94F WCI  39
STAMFORD         N/A     46  45  97 W9        29.96R
CLYDE            N/A     52  52  99 W8        29.92R
$$

SUPPLEMENTAL OBSERVATIONS (NWS SHREVEPORT AREA)

CITY           SKY/WX    TMP DP  RH WIND       PRES   REMARKS
$$

SUPPLEMENTAL OBSERVATIONS ARE A COLLECTION OF AUTOMATED INSTRUMENTS
THAT ARE MAINTAINED BY A VARIETY OF FEDERAL AND STATE AGENCIES.
CERTAIN ELEMENTS...SUCH AS HUMIDITY VALUES AND SUSTAINED WIND
SPEEDS...MAY BE APPROXIMATED.




USA.gov is the U.S. government's official web portal to all federal, state and local government web resources and services.